Flag for Germany Weather past 2 weeks in Norden, Lower Saxony, Germany

Now
71 °F

Passing clouds.


Feels Like: 74 °F
Forecast: 61 / 69 °F
Wind: 5 mph from Northwest

Location: Norderney

Current Time: Aug 3, 2015 at 8:12:48 PM

Latest Report: Aug 3, 2015 at 8:00 PM


Visibility: 15 mi

Pressure: 29.91 "Hg

Humidity: 69%

Dew point: 60 °F

Location of NordenLocation

Historic Weather in Norden — Graph

°F

Norden temperature yesterday

Maximum temperature yesterday: 67 °F (at 1:00 PM)
Minimum temperature yesterday: 57 °F (at 5:00 AM)
Average temperature yesterday: 63 °F

Past Weeks' High & Low Weather Summary

 TemperatureHumidityPressure
High84 °F (Aug 3, 6:00 PM)98% (Jul 25, 1:00 AM)30.16 "Hg (Jul 25, 1:00 AM)
Low51 °F (Aug 1, 7:00 AM)41% (Aug 3, 6:00 PM)29.38 "Hg (Jul 25, 12:00 PM)
Average62 °F76%29.83 "Hg
* Reported Jul 19 7:00 PM — Aug 3 7:00 PM, Norden, Weather by CustomWeather, © 2015

Note: Actual official high and low records may vary slightly from our data, if they occured in-between our weather recording intervals... More about our weather records

Advertising

Norden weather history for previous 24 hours

 ConditionsComfort  
Time TempWeatherWind HumidityBarometerVisibility
7:00 PM
Mon, Aug 3
84 °FSunny.6 mph43%29.89 "Hg14 mi
6:00 PM84 °FSunny.6 mph41%29.90 "Hg9 mi
5:00 PM84 °FSunny.6 mph44%29.91 "Hg9 mi
4:00 PM83 °FSunny.6 mph43%29.92 "Hg8 mi
3:00 PM83 °FSunny.6 mph44%29.93 "Hg8 mi
2:00 PM81 °FSunny.5 mph48%29.94 "Hg11 mi
1:00 PM78 °FSunny.6 mph48%29.96 "Hg7 mi
12:00 PM76 °FSunny.6 mph52%29.96 "Hg11 mi
11:00 AM72 °FPassing clouds.6 mph54%29.97 "Hg9 mi
10:00 AM69 °FSunny.5 mph58%29.97 "Hg7 mi
9:00 AM64 °FSunny.6 mph68%29.98 "Hg14 mi
8:00 AM61 °FSunny.6 mph73%29.99 "Hg19 mi
7:00 AM59 °FSunny.6 mph77%30.01 "Hg22 mi
6:00 AM58 °FSunny.5 mph77%30.02 "Hg17 mi
5:00 AM59 °FClear.5 mph77%30.05 "Hg18 mi
4:00 AM60 °FClear.6 mph76%30.06 "HgN/A
3:00 AM60 °FClear.5 mph77%30.08 "Hg15 mi
2:00 AM61 °FClear.5 mph76%30.09 "Hg14 mi
1:00 AM60 °FClear.3 mph81%30.10 "Hg9 mi
11:00 PM
Sun, Aug 2
61 °FClear.5 mph83%30.11 "Hg9 mi
10:00 PM62 °FClear.3 mph82%30.12 "Hg11 mi
9:00 PM65 °FPassing clouds.3 mph77%30.11 "Hg14 mi
8:00 PM66 °FSunny.5 mph77%30.12 "Hg12 mi
Weather by CustomWeather, © 2015

See weather overviewHow to use our weather pages